User: anonymous   Login
Location: Twentynine Palms Airport
(34.1316°N, 115.9458°W)
Time: 03:51:02
(UTC-07:00)
Language:

Oscar 19 - Orbit

View from above orbital plane
View from above orbital plane
View from above satellite
View from above satellite

Ground track
Ground track

The orbit data is extracted from the following two-line orbital elements,

1 20442U 90005G   17206.27145290 -.00000017 +00000-0 +99652-5 0  9997
2 20442 098.5764 142.4015 0012570 039.8372 320.3733 14.32864787437013
Epoch (UTC): 25 July 2017 06:30:53
Eccentricity: 0.0012570
inclination: 98.5764°
perigee height: 773 km
apogee height: 791 km
right ascension of ascending node: 142.4015°
argument of perigee: 39.8372°
revolutions per day: 14.32864787
mean anomaly at epoch: 320.3733°
orbit number at epoch: 43701

The dashed part of the orbit path shows where the satellite is in the earth's shadow,  

DLR